This demonstration page uses our WeatherBlox Daily Observations layout. Learn more.

Left ArrowRight Arrow

38.20091, -84.87328

Hourly Observations for July 31, 2022

Temp ( °F °C ) Dew Point ( °F °C ) Humidity (%) Winds ( mph kmh ) Pressure ( in mb ) Visibility ( mi km ) Precip ( " mm )
12:53 am 00:53 Clear 71 21.7 65 18.3 81 81 Calm 30.14 1021 10 16 0.00 0.00
1:53 am 01:53 Clear 71 21.7 65 18.3 81 81 Calm 30.14 1021 10 16 0.00 0.00
2:53 am 02:53 Cloudy 70 21.1 65 18.3 84 84 ENE 3 6 30.12 1020 10 16 0.00 0.00
3:53 am 03:53 Partly Cloudy 70 21.1 65 18.3 84 84 ENE 3 6 30.09 1019 10 16 0.00 0.00
4:53 am 04:53 Mostly Cloudy 71 21.7 65 18.3 81 81 VRB 3 6 30.09 1019 10 16 0.00 0.00
5:48 am 05:48 Cloudy with Nearby Thunderstorms 70 21 66 19 88 88 NNW 5 7 30.10 1019 3 5 0.07 1.78
5:53 am 05:53 Cloudy with Strong Thunderstorms 68 20 66 18.9 93 93 WNW 5 7 30.11 1020 2 3 0.15 3.81
6:18 am 06:18 Cloudy with Nearby Thunderstorms 67 19.4 66 18.9 97 97 NNW 3 6 30.11 1020 1 2 0.32 8.13
6:28 am 06:28 Cloudy with Nearby Thunderstorms 68 20 66 18.9 93 93 ENE 3 6 30.11 1020 2 3 0.39 9.91
6:31 am 06:31 Cloudy with Nearby Thunderstorms 68 20 66 18.9 93 93 ENE 6 9 30.11 1020 3 5 0.39 9.91
6:45 am 06:45 Cloudy with Light Rain 68 20 66 18.9 93 93 NE 5 7 30.11 1020 6 10 0.41 10.41
6:53 am 06:53 Cloudy with Light Rain 68 20 66 18.9 93 93 NE 7 11 30.09 1019 5 8 0.42 10.67
7:12 am 07:12 Cloudy with Light Rain 68 20 66 18.9 93 93 NE 5 7 30.10 1019 7 11 0.02 0.51
7:53 am 07:53 Cloudy with Rain 67 19.4 66 18.9 97 97 ENE 7 11 30.10 1019 3 5 0.08 2.03
8:07 am 08:07 Cloudy with Heavy Rain 67 19.4 66 18.9 97 97 N 5 7 30.10 1019 2 3 0.05 1.27
8:15 am 08:15 Cloudy with Heavy Rain 67 19.4 66 18.9 97 97 N 7 11 30.11 1020 1 1 0.19 4.83
8:25 am 08:25 Cloudy with Rain 67 19.4 66 18.9 97 97 NNW 3 6 30.12 1020 1 2 0.26 6.60
8:28 am 08:28 Cloudy with Light Rain 67 19.4 66 18.9 97 97 NNE 5 7 30.12 1020 2 3 0.26 6.60
8:30 am 08:30 Cloudy with Light Rain 67 19.4 66 18.9 97 97 NE 3 6 30.12 1020 3 5 0.26 6.60
8:53 am 08:53 Cloudy 67 19.4 66 18.9 97 97 ENE 7 11 30.11 1020 7 11 0.27 6.86
9:20 am 09:20 Cloudy 68 20 66 18.9 93 93 VRB 3 6 30.13 1020 10 16 0.00 0.00
9:29 am 09:29 Cloudy with Light Rain 68 20 66 18.9 93 93 NNW 6 9 30.13 1020 6 10 0.00 0.00
9:41 am 09:41 Cloudy with Light Rain 68 20 66 18.9 93 93 N 3 6 30.13 1020 2 3 0.01 0.25
9:53 am 09:53 Cloudy with Light Rain 68 20 66 18.9 93 93 NNE 3 6 30.13 1020 2 3 0.01 0.25
10:10 am 10:10 Cloudy with Mist and Fog 68 20 66 18.9 93 93 NNE 5 7 30.13 1020 2 3 0.01 0.25
10:43 am 10:43 Cloudy with Mist and Fog 68 20 66 18.9 93 93 NE 3 6 30.13 1020 4 6 0.01 0.25
10:53 am 10:53 Cloudy 68 20 66 18.9 93 93 NNE 5 7 30.14 1021 7 11 0.01 0.25
11:12 am 11:12 Cloudy with Mist and Fog 68 20 66 18.9 93 93 NE 5 7 30.13 1020 3 5 0.00 0.00
11:23 am 11:23 Cloudy with Mist and Fog 69 20.6 66 18.9 90 90 ENE 6 9 30.12 1020 3 5 0.00 0.00
11:53 am 11:53 Cloudy 70 21.1 68 20 93 93 VRB 7 11 30.12 1020 7 11 0.00 0.00
12:23 pm 12:23 Cloudy 71 21.7 67 19.4 87 87 E 6 9 30.12 1020 10 16 0.00 0.00
12:53 pm 12:53 Cloudy 71 21.7 67 19.4 87 87 E 7 11 30.12 1020 10 16 0.00 0.00
1:00 pm 13:00 Cloudy 71 21.7 67 19.4 87 87 E 3 6 30.12 1020 10 16 0.00 0.00
1:53 pm 13:53 Cloudy 72 22.2 66 18.9 82 82 NE 3 6 30.11 1020 10 16 0.00 0.00
2:53 pm 14:53 Cloudy 73 22.8 67 19.4 81 81 Calm 30.11 1020 10 16 0.00 0.00
3:53 pm 15:53 Cloudy 74 23.3 68 20 82 82 Calm 30.10 1019 10 16 0.00 0.00
4:38 pm 16:38 Cloudy 74 23.3 67 19.4 79 79 VRB 3 6 30.09 1019 10 16 0.00 0.00
4:53 pm 16:53 Cloudy 75 23.9 68 20 79 79 Calm 30.09 1019 10 16 0.00 0.00
5:12 pm 17:12 Mostly Cloudy 77 25 68 20 74 74 Calm 30.07 1018 10 16 0.00 0.00
5:30 pm 17:30 Mostly Cloudy 76 24.4 68 20 77 77 VRB 3 6 30.07 1018 10 16 0.00 0.00
5:42 pm 17:42 Mostly Cloudy 78 25.6 68 20 71 71 Calm 30.07 1018 10 16 0.00 0.00
5:53 pm 17:53 Mostly Cloudy 77 25 68 20 74 74 Calm 30.07 1018 10 16 0.00 0.00
6:14 pm 18:14 Cloudy 76 24.4 68 20 77 77 WSW 3 6 30.06 1018 10 16 0.00 0.00
6:33 pm 18:33 Cloudy 77 25 68 20 74 74 Calm 30.06 1018 10 16 0.00 0.00
6:41 pm 18:41 Cloudy 77 25 68 20 74 74 N 3 6 30.06 1018 10 16 0.00 0.00
6:53 pm 18:53 Cloudy 77 25 68 20 74 74 N 3 6 30.06 1018 10 16 0.00 0.00
7:10 pm 19:10 Cloudy 77 25 68 20 74 74 Calm 30.05 1018 10 16 0.00 0.00
7:53 pm 19:53 Cloudy 77 25 68 20 74 74 Calm 30.06 1018 10 16 0.00 0.00
8:53 pm 20:53 Partly Cloudy 73 22.8 68 20 84 84 ESE 3 6 30.06 1018 10 16 0.00 0.00
9:53 pm 21:53 Cloudy 74 23.3 70 21.1 88 88 SE 5 7 30.05 1018 10 16 0.00 0.00
10:53 pm 22:53 Cloudy 74 23.3 70 21.1 88 88 SE 3 6 30.06 1018 10 16 0.00 0.00
11:41 pm 23:41 Cloudy 74 23.3 71 21.7 91 91 Calm 30.05 1018 10 16 0.00 0.00
11:53 pm 23:53 Cloudy 74 23.3 70 21.1 88 88 Calm 30.06 1018 10 16 0.00 0.00

Powered by AerisWeather